Wind_Speed
28 30 34 34 32 29 28 25 20 17 17 15 15 17 17 18 18 20 21 24 17 15 19 35 27 31 32 37 24 7 15 22 20 18 16 16 16 16 16 15 17 17 18 19 21 21 26
32 34 35 35 34 29 29 25 20 17 13 14 12 14 13 13 12 17 20 26 15 17 14 27 30 32 26 34 29 21 8 14 18 16 15 14 14 15 14 14 16 16 16 18 19 22 27
34 36 36 33 32 34 33 31 27 24 16 17 13 12 15 11 11 15 18 28 16 17 15 29 34 32 27 30 30 27 17 14 14 14 12 12 12 13 13 13 14 16 18 19 22 23 24
37 36 34 35 34 37 36 32 27 23 19 18 15 11 13 7 11 13 10 22 12 11 24 27 37 39 28 20 31 22 21 14 13 10 10 11 11 11 11 12 13 16 19 13 14 18 19
37 35 34 38 39 39 40 35 25 21 15 15 20 11 9 8 8 6 6 8 12 11 24 34 23 33 27 25 24 18 13 12 12 11 10 10 9 9 10 10 13 11 10 9 6 14 16
35 34 38 40 40 43 40 30 18 16 8 5 2 1 5 5 6 3 5 6 7 11 29 30 19 21 30 31 27 22 19 15 12 11 10 8 7 7 8 8 5 5 7 7 10 15 18
34 38 38 44 42 44 36 31 24 22 13 10 9 7 6 4 3 4 4 5 20 24 32 27 26 9 30 25 24 24 20 15 13 10 7 5 4 5 3 3 4 5 9 13 12 14 20
34 38 41 42 43 44 39 33 26 23 18 17 12 10 8 5 5 5 4 17 25 28 29 15 27 30 28 25 27 20 17 14 11 8 6 4 3 3 3 3 5 8 12 13 10 11 20
33 39 41 40 41 37 37 35 32 27 25 19 16 15 13 10 9 12 13 19 26 21 34 34 35 32 28 23 19 18 15 13 11 8 7 6 5 5 3 6 8 10 13 10 12 19 20
33 38 39 36 37 37 34 31 30 28 23 19 17 15 12 12 15 15 30 33 29 29 25 22 28 24 20 18 17 15 13 11 9 8 7 5 5 4 5 7 10 12 9 9 14 16 8
32 35 37 36 33 34 34 31 28 27 23 20 19 22 22 25 23 32 33 40 29 14 7 8 19 26 22 10 20 16 12 10 8 7 5 3 1 3 7 7 9 5 10 13 16 19 21
32 33 34 33 33 32 29 28 26 26 26 26 25 25 34 27 23 25 27 22 10 9 8 10 15 16 17 19 14 16 11 9 6 5 4 1 1 3 5 7 8 4 10 15 6 8 6
32 34 29 30 30 31 32 30 29 28 27 26 25 27 23 19 16 16 21 12 15 13 13 18 21 18 16 18 16 13 10 7 3 5 6 5 4 4 4 5 3 6 9 4 2 2 5
35 32 31 27 27 29 31 29 28 28 26 25 25 25 21 15 15 14 17 17 16 6 16 22 21 18 20 18 14 11 9 9 8 7 8 7 3 2 2 3 3 8 4 2 3 2 4
39 32 32 31 28 26 28 30 32 27 23 22 25 25 23 21 17 19 30 35 14 23 26 23 19 15 12 12 10 10 11 10 6 5 4 2 2 3 4 6 3 2 3 5 5 7 5
38 35 34 33 30 27 24 25 28 28 25 24 29 25 22 21 25 31 40 36 28 27 16 9 6 10 15 12 8 6 6 7 7 3 2 3 2 3 6 5 3 6 9 2 2 3 4
32 32 30 30 30 28 24 21 23 26 27 25 28 36 27 30 32 37 44 33 22 15 12 12 15 14 12 9 9 7 5 6 7 4 4 2 2 3 3 0 5 7 6 7 5 4 2
25 27 25 25 27 26 26 24 23 23 21 21 24 31 19 20 31 40 34 30 25 21 20 18 14 12 10 9 9 6 5 3 4 3 3 4 4 5 1 4 7 6 8 12 4 2 5
18 22 22 21 22 21 21 22 19 19 19 20 27 26 20 14 33 32 28 24 22 16 14 14 11 12 10 9 5 6 5 4 2 2 3 6 4 6 1 1 1 4 10 13 7 10 5
16 15 19 19 19 19 19 18 18 16 14 14 21 23 22 22 23 23 22 20 18 16 16 14 11 9 9 8 7 5 4 4 3 3 4 6 5 4 4 6 7 5 7 10 5 4 3
14 11 14 16 16 16 17 17 18 17 16 15 14 16 14 16 18 17 17 15 13 13 11 9 10 9 7 6 6 5 3 3 3 5 5 6 5 9 9 9 11 11 7 7 6 8 5
10 12 7 12 12 12 13 14 14 13 13 13 14 14 13 14 13 11 12 12 11 11 10 9 7 6 3 3 2 1 3 3 2 5 6 6 5 14 14 9 12 16 13 12 9 6 5
9 8 8 3 9 8 10 11 11 11 11 10 10 10 9 9 9 8 9 8 8 8 6 5 4 4 3 1 2 4 5 5 6 7 7 6 8 11 5 7 14 16 5 11 9 7 7
11 6 8 6 1 6 5 7 8 8 8 8 8 7 6 6 6 5 5 5 4 4 3 2 1 1 3 6 8 10 11 12 12 12 11 9 9 8 10 11 2 3 4 7 10 10 10
10 7 7 7 7 5 6 4 2 3 4 4 4 3 4 4 4 3 3 3 4 3 3 3 4 6 7 9 11 7 6 7 7 9 11 11 9 6 5 8 18 12 7 10 10 9 12
13 11 7 9 9 8 7 7 7 4 2 2 3 3 3 4 6 6 5 6 6 5 5 5 7 8 10 11 8 4 3 4 4 5 7 9 11 11 7 4 4 3 4 6 9 9 2
13 13 10 9 12 11 10 9 9 9 9 8 7 7 7 6 6 7 8 8 9 9 9 10 10 13 8 11 8 4 4 5 4 4 5 8 11 16 16 10 10 11 9 7 3 3 7
17 14 14 10 11 13 12 11 11 11 12 12 13 12 12 12 12 13 12 13 14 15 15 14 14 9 12 6 6 4 6 5 8 10 13 9 6 6 6 8 7 3 4 6 11 15 15
18 16 14 15 12 12 15 14 14 13 12 14 14 16 17 17 15 16 17 18 19 18 19 20 17 16 9 8 8 9 13 17 17 9 13 9 9 8 9 9 16 24 27 25 18 13 16
Wind_Direction
341 336 338 334 329 328 324 318 310 302 297 293 285 273 278 272 265 264 255 239 242 241 247 215 209 194 213 220 226 189 214 223 225 229 232 229 226 225 229 241 248 255 263 268 274 281 281
346 346 342 335 335 335 336 328 317 300 304 308 300 289 283 278 272 269 251 242 246 235 249 202 192 191 194 211 222 225 197 203 216 223 222 216 220 227 236 244 252 263 269 275 282 284 287
353 348 341 343 344 335 332 325 320 309 294 307 301 291 299 290 286 270 253 241 247 227 235 191 188 185 195 205 199 200 191 171 182 197 207 215 225 229 236 251 260 269 275 283 287 289 286
354 346 348 351 345 334 326 318 308 305 292 293 282 288 295 293 282 270 270 237 267 227 183 181 183 193 210 193 203 219 179 192 203 216 219 223 231 240 248 257 269 283 290 297 294 294 293
355 349 359 355 345 340 336 326 306 286 276 285 286 254 281 280 302 267 252 250 260 263 179 173 170 182 176 195 199 196 182 193 205 217 224 231 238 247 256 269 282 284 287 305 307 304 301
358 4 7 356 359 351 351 344 339 297 236 311 123 10 299 298 300 290 260 255 234 197 174 189 167 165 176 153 186 193 202 201 195 207 216 226 240 257 270 276 258 279 296 302 317 308 303
4 17 10 10 8 9 8 20 41 50 82 86 59 35 12 329 342 316 301 212 160 154 169 180 194 133 165 179 173 190 183 180 186 195 196 216 243 250 254 252 252 280 301 311 321 308 310
13 25 23 14 20 26 30 29 38 46 62 63 51 40 47 46 24 333 230 188 134 145 159 178 172 147 158 158 175 171 170 172 177 176 178 192 180 174 182 243 283 298 304 317 316 322 311
20 31 30 22 25 31 28 44 56 59 62 61 56 56 64 63 52 95 81 150 141 149 117 126 145 150 151 146 139 144 151 156 160 162 161 163 160 181 237 296 296 299 311 310 312 320 329
23 33 33 29 34 33 38 45 48 54 55 61 63 57 61 60 79 70 126 140 137 119 89 97 120 126 144 140 147 141 145 147 148 157 154 183 203 244 289 305 299 311 303 314 328 324 315
28 33 36 34 43 45 42 51 58 61 60 60 58 69 71 60 88 112 114 117 114 98 76 63 105 123 111 117 140 142 148 138 133 133 140 150 203 301 304 289 296 305 335 324 305 295 297
33 30 39 39 44 55 53 54 59 67 70 73 74 70 69 85 89 88 138 90 80 93 60 105 101 114 118 130 128 141 126 122 123 120 112 93 357 301 285 277 286 328 308 305 293 262 241
37 29 35 40 41 48 58 54 54 59 65 69 67 67 63 69 84 102 111 112 83 60 105 105 113 107 117 116 123 119 119 112 102 114 91 87 55 356 356 349 327 282 295 298 307 230 237
37 31 33 33 37 40 46 50 50 53 54 45 49 45 38 62 97 105 102 102 70 97 120 122 119 113 111 111 109 112 110 96 80 78 76 52 74 47 22 39 284 288 274 268 271 297 302
37 36 30 27 26 29 39 54 59 51 49 46 44 50 56 75 110 112 108 91 101 116 122 121 118 112 101 105 120 108 83 72 66 77 67 26 89 85 56 52 33 314 292 289 278 289 275
36 37 27 23 30 32 32 37 44 44 51 54 63 73 68 84 103 113 104 98 106 108 101 98 102 98 100 89 87 81 70 84 85 91 77 79 308 270 290 316 24 23 11 357 274 308 291
46 36 28 27 30 35 39 41 40 53 61 61 70 80 83 97 104 102 95 95 95 95 93 87 99 108 95 92 96 84 92 98 101 86 60 12 277 225 284 5 11 354 9 345 283 251 302
53 39 34 32 31 38 45 52 61 66 65 65 74 74 69 92 91 84 87 90 92 88 89 87 85 89 86 94 76 79 85 91 76 35 354 324 291 285 208 279 311 331 327 338 227 207 251
36 57 40 28 31 32 36 42 54 57 59 63 73 76 81 86 81 83 84 84 81 79 75 80 88 87 77 76 82 83 76 61 43 32 8 354 330 326 17 79 250 326 337 343 254 261 248
16 54 54 38 33 28 28 34 36 36 36 44 82 88 87 82 83 87 92 88 88 82 80 83 79 73 78 74 74 84 68 69 54 22 1 340 313 302 264 298 301 315 334 347 269 256 283
3 20 63 49 38 39 30 33 39 40 48 56 80 79 80 81 80 80 85 84 85 85 79 86 88 84 85 90 85 88 68 40 15 3 343 325 295 302 301 291 284 295 309 307 325 271 254
349 2 29 72 49 38 39 26 32 46 50 57 72 78 77 80 79 79 86 84 80 85 89 90 88 82 74 44 77 39 349 349 349 339 327 315 291 312 311 269 271 284 279 269 249 246 232
337 345 349 57 87 54 41 39 32 34 51 49 60 69 74 75 78 87 86 86 92 95 79 70 77 76 69 82 319 304 299 295 295 308 314 305 311 316 282 295 292 284 235 223 237 241 242
350 310 329 323 207 120 75 46 43 39 35 50 54 53 51 70 82 84 82 87 90 101 107 117 75 27 344 323 312 300 287 278 278 279 284 288 302 300 287 312 326 228 261 253 251 260 260
344 331 293 311 297 241 164 146 105 26 9 10 19 35 30 21 17 16 13 24 15 0 339 327 319 315 318 318 323 323 305 288 277 268 263 267 280 289 274 292 285 285 277 252 263 275 276
336 348 309 287 299 291 249 207 191 191 231 284 303 308 301 316 326 319 324 327 326 325 325 318 315 317 313 314 309 273 267 279 267 279 259 262 260 253 275 280 256 260 314 300 300 310 336
334 328 345 292 280 290 293 265 233 221 221 236 251 265 270 279 291 301 298 301 306 310 317 321 323 323 320 319 302 272 256 265 273 260 268 273 272 254 254 255 275 275 291 299 286 317 321
329 328 323 336 282 274 282 288 273 248 237 236 249 257 266 272 276 276 275 285 289 291 293 298 310 310 315 308 298 298 281 273 278 277 284 271 263 249 226 231 279 268 302 295 301 300 302
325 325 319 317 328 284 271 277 285 277 255 245 246 254 262 270 269 274 273 271 275 281 286 287 281 283 275 281 283 298 285 289 284 280 279 262 240 249 242 253 279 287 290 288 290 294 290
Height
3062 3056 3051 3044 3037 3031 3026 3020 3017 3014 3013 3012 3011 3010 3009 3009 3009 3010 3012 3016 3017 3020 3022 3026 3035 3044 3050 3057 3061 3065 3067 3071 3075 3080 3083 3086 3088 3090 3092 3095 3096 3097 3098 3098 3098 3101 3098
3060 3054 3046 3038 3031 3026 3021 3015 3012 3008 3007 3007 3006 3006 3006 3005 3005 3005 3007 3010 3011 3014 3017 3021 3031 3040 3046 3054 3058 3063 3066 3068 3074 3077 3081 3084 3086 3088 3090 3092 3094 3096 3095 3095 3096 3097 3094
3058 3051 3043 3035 3029 3021 3014 3009 3005 3002 3000 3000 3000 3001 3001 3000 2999 3001 3003 3005 3007 3008 3013 3018 3025 3034 3040 3047 3054 3058 3064 3067 3072 3076 3079 3082 3085 3087 3088 3090 3091 3092 3093 3093 3092 3091 3090
3057 3049 3040 3033 3025 3016 3008 3001 2997 2994 2993 2993 2995 2995 2995 2996 2996 2998 3000 3001 3003 3005 3009 3016 3023 3031 3038 3043 3050 3058 3061 3066 3071 3075 3078 3081 3083 3085 3087 3089 3088 3090 3089 3089 3088 3087 3085
3055 3047 3038 3030 3021 3009 2998 2990 2986 2985 2985 2988 2987 2990 2992 2993 2995 2996 2998 2999 3001 3004 3009 3014 3019 3027 3038 3041 3049 3055 3060 3065 3069 3074 3077 3080 3082 3084 3085 3085 3087 3086 3086 3086 3086 3084 3082
3054 3045 3038 3029 3017 3004 2991 2982 2976 2973 2974 2983 2984 2988 2991 2993 2995 2995 2997 2998 2997 3000 3008 3012 3018 3028 3033 3039 3045 3053 3060 3064 3069 3073 3076 3078 3080 3082 3083 3083 3084 3083 3084 3084 3083 3082 3079
3055 3045 3039 3029 3017 3004 2994 2984 2978 2976 2979 2985 2988 2991 2992 2993 2994 2993 2996 2998 2997 3001 3007 3013 3017 3025 3030 3040 3047 3053 3060 3064 3068 3072 3074 3076 3079 3080 3079 3080 3080 3081 3082 3081 3081 3078 3074
3057 3047 3040 3031 3020 3011 3002 2994 2988 2986 2987 2991 2993 2993 2993 2993 2993 2991 2992 2997 2998 3003 3009 3017 3024 3029 3035 3041 3047 3054 3060 3065 3067 3070 3072 3076 3076 3077 3077 3079 3080 3081 3080 3079 3078 3077 3073
3060 3050 3043 3036 3025 3017 3011 3003 3000 2997 2996 2996 2996 2995 2994 2993 2992 2992 2991 2995 3001 3006 3011 3019 3025 3032 3038 3045 3049 3054 3060 3063 3067 3069 3071 3073 3076 3076 3077 3079 3080 3079 3078 3076 3077 3073 3072
3063 3054 3047 3042 3032 3023 3018 3012 3008 3005 3003 3000 2999 2999 2998 2996 2997 2992 2996 3000 3006 3011 3017 3029 3032 3037 3041 3046 3052 3056 3060 3065 3066 3069 3071 3074 3074 3076 3077 3078 3078 3077 3076 3075 3075 3074 3072
3066 3059 3052 3047 3040 3031 3026 3020 3014 3011 3010 3009 3006 3002 3000 2997 2999 3003 3005 3007 3013 3015 3023 3040 3038 3041 3045 3050 3055 3058 3062 3064 3066 3068 3073 3075 3074 3075 3077 3076 3076 3076 3074 3074 3073 3073 3071
3069 3064 3058 3052 3046 3039 3033 3030 3025 3020 3016 3014 3012 3011 3009 3010 3010 3012 3012 3015 3016 3021 3034 3043 3045 3047 3050 3053 3056 3060 3063 3066 3068 3069 3071 3072 3073 3075 3075 3075 3074 3074 3073 3071 3069 3069 3067
3072 3069 3064 3058 3052 3047 3040 3037 3033 3028 3025 3021 3018 3018 3019 3017 3017 3016 3018 3019 3019 3025 3044 3049 3050 3051 3053 3056 3059 3062 3065 3068 3069 3070 3070 3072 3073 3074 3074 3074 3074 3073 3073 3071 3070 3066 3062
3076 3074 3070 3064 3058 3054 3048 3043 3040 3036 3032 3027 3025 3022 3022 3020 3021 3020 3021 3022 3025 3042 3044 3051 3053 3056 3057 3061 3064 3066 3067 3068 3069 3069 3070 3071 3075 3074 3074 3074 3073 3072 3072 3071 3071 3065 3060
3080 3078 3074 3071 3064 3059 3056 3050 3046 3042 3038 3036 3031 3027 3025 3025 3024 3026 3027 3022 3038 3046 3051 3054 3059 3061 3062 3063 3065 3066 3067 3067 3069 3070 3072 3074 3074 3075 3074 3073 3072 3070 3070 3070 3068 3063 3061
3084 3082 3079 3075 3071 3064 3061 3056 3051 3049 3046 3042 3041 3036 3034 3033 3031 3032 3030 3032 3045 3050 3054 3056 3057 3058 3059 3061 3063 3065 3068 3071 3072 3073 3074 3075 3075 3074 3074 3072 3072 3071 3070 3069 3068 3067 3060
3087 3085 3084 3081 3077 3072 3066 3063 3059 3055 3052 3051 3048 3043 3046 3044 3044 3040 3035 3045 3052 3055 3056 3059 3059 3062 3063 3065 3067 3069 3073 3075 3074 3075 3075 3075 3076 3075 3073 3071 3071 3070 3069 3069 3068 3067 3065
3090 3088 3086 3085 3083 3079 3074 3069 3067 3063 3061 3061 3056 3050 3056 3056 3052 3045 3050 3053 3057 3060 3061 3062 3064 3065 3067 3068 3070 3071 3074 3074 3075 3076 3076 3075 3074 3071 3072 3071 3070 3070 3068 3067 3066 3066 3064
3095 3090 3089 3088 3086 3085 3081 3077 3074 3071 3068 3065 3060 3059 3062 3063 3055 3056 3060 3061 3063 3065 3065 3067 3068 3070 3071 3071 3073 3074 3075 3076 3076 3076 3076 3075 3074 3071 3070 3072 3070 3069 3068 3065 3062 3063 3060
3099 3093 3090 3090 3088 3088 3086 3082 3079 3077 3073 3071 3069 3067 3068 3066 3065 3065 3066 3068 3068 3070 3070 3071 3072 3073 3074 3074 3074 3075 3076 3077 3077 3077 3076 3075 3073 3072 3072 3071 3070 3068 3067 3065 3063 3061 3058
3101 3097 3092 3091 3092 3089 3088 3086 3082 3081 3078 3076 3073 3073 3072 3072 3070 3070 3070 3072 3073 3073 3074 3074 3075 3075 3075 3076 3076 3077 3077 3077 3077 3076 3075 3074 3072 3071 3069 3068 3066 3065 3065 3064 3061 3059 3058
3101 3099 3096 3091 3092 3092 3090 3089 3088 3084 3084 3082 3079 3079 3079 3077 3076 3076 3076 3076 3076 3077 3077 3078 3078 3078 3077 3077 3078 3077 3077 3076 3076 3075 3074 3073 3071 3068 3065 3064 3063 3060 3060 3059 3058 3056 3055
3100 3098 3097 3095 3091 3091 3092 3090 3090 3089 3087 3087 3085 3084 3083 3082 3081 3081 3080 3080 3079 3079 3080 3079 3079 3079 3079 3078 3078 3077 3076 3075 3074 3074 3072 3071 3070 3068 3062 3061 3060 3055 3051 3053 3053 3052 3052
3098 3098 3097 3096 3094 3090 3090 3091 3091 3091 3090 3088 3088 3088 3087 3086 3085 3084 3083 3082 3081 3081 3081 3081 3081 3080 3081 3078 3077 3075 3074 3073 3071 3071 3070 3069 3068 3067 3061 3059 3059 3050 3049 3050 3049 3048 3047
3097 3095 3095 3096 3094 3093 3090 3088 3090 3091 3091 3090 3088 3089 3089 3089 3088 3087 3086 3085 3084 3082 3081 3080 3079 3079 3077 3077 3075 3072 3071 3070 3068 3067 3066 3066 3066 3065 3062 3058 3051 3046 3046 3046 3046 3046 3044
3096 3094 3093 3094 3093 3093 3091 3088 3087 3087 3089 3089 3089 3088 3088 3088 3088 3087 3085 3085 3084 3083 3082 3081 3079 3078 3076 3074 3073 3070 3069 3067 3066 3064 3063 3063 3063 3064 3060 3059 3051 3045 3044 3044 3044 3041 3041
3093 3093 3090 3091 3092 3091 3091 3089 3087 3085 3084 3086 3086 3087 3086 3086 3086 3086 3085 3084 3084 3083 3081 3079 3078 3077 3074 3072 3070 3068 3067 3066 3064 3063 3061 3061 3059 3057 3057 3056 3045 3042 3042 3042 3043 3045 3040
3093 3090 3091 3086 3087 3088 3089 3088 3086 3083 3081 3081 3083 3084 3084 3083 3083 3082 3082 3082 3081 3080 3079 3079 3078 3074 3073 3071 3069 3068 3065 3063 3060 3059 3058 3058 3056 3053 3052 3050 3044 3041 3041 3043 3042 3039 3038
3091 3088 3086 3087 3084 3083 3084 3085 3085 3083 3080 3078 3078 3078 3079 3079 3080 3078 3078 3077 3076 3076 3076 3074 3075 3073 3073 3071 3070 3067 3065 3062 3058 3055 3052 3051 3050 3049 3047 3041 3038 3037 3037 3036 3035 3034 3034